Terminal Aerodrome Forecast
Issued by NWS

Home | Current Version | Previous Version | Graphics & Text | Print | Product List | Glossary On
Versions: 1 2 3 4 5 6 7 8 9 10 11 12 13 14 15 16 17 18 19 20 21
000
FTUS43 KGRB 251100
TAFMTW
TAF
KMTW 251133Z 2512/2612 29012G19KT 6SM -SHSN SCT025 OVC040
     FM251400 29010KT P6SM OVC040
     FM252000 26007KT P6SM SCT045 BKN120
     FM260000 22003KT P6SM SCT100=

USA.gov is the U.S. government's official web portal to all federal, state and local government web resources and services.